Tracking 19832 objects as of 24-Aug-2019
HD Live streaming from Space Station
objects crossing your sky now

FENGYUN 1C DEB

Track FENGYUN 1C DEB now!
10-day predictions


NORAD ID: 36166
Int'l Code: 1999-025DSP
Perigee: 783.4 km
Apogee: 1,324.6 km
Inclination: 97.6 °
Period: 106.1 minutes
Semi major axis: 7424 km
RCS: 0.015 m2 (small)
Launch date: May 10, 1999
Source: People's Republic of China (PRC)
Launch site: Taiyaun Space Center, China (TSC)

Note: This is SATELLITE DEBRIS
aabbcc
Your satellite tracking list
Your tracking list is empty




NASA's NSSDC Master Catalog

Two Line Element Set (TLE):
1 36166U 99025DSP 19034.52465060 +.00000601 +00000-0 +57921-3 0  9996
2 36166 097.5793 141.8279 0364448 259.8268 096.1591 13.56938858551014
Source of the keplerian elements: AFSPC